Weather observations for the past three days for
Ormond Beach, Ormond Beach Municipal Airport
Imperial (Metric)
Date Time (edt) Wind (mph) Vis. (mi.) Weather Sky Cond. Temperature (ºF) Relative Humidity Wind Chill (°F) Heat Index (°F) Pressure Precipitation (in)
Air Dwpt 6 hour altimeter (in) sea level (mb) 1 hr 3 hr 6 hr
Max. Min.
18 18:50 SE 12 G 18 7.00 Fair CLR 87.8 77 70% 100 29.96 0.0
18 17:50 SE 13 G 23 7.00 Fair CLR 89.6 78.8 71% 105 30.01 0.0
18 16:50 SE 12 G 20 7.00 Fair CLR 89.6 80.6 75% 108 30.03 0.0
18 15:50 E 12 8.00 Partly Cloudy SCT045 89.6 80.6 75% 108 30.03 0.0
18 14:50 E 12 8.00 Partly Cloudy SCT055 89.6 78.8 71% 105 30.04 0.0
18 13:50 W 6 7.00 Partly Cloudy SCT040 93.2 77 59% 107 30.06 0.0
18 12:50 W 7 7.00 Partly Cloudy SCT035 91.4 77 63% 105 30.07 0.0
18 11:50 SW 5 7.00 Fair CLR 89.6 78.8 71% 105 30.1 0.0
18 10:50 SW 8 7.00 Fair CLR 87.8 78.8 75% 102 30.11 0.0
18 09:50 S 8 7.00 Fair CLR 87.8 80.6 79% 105 30.1 0.0
18 08:50 Calm 7.00 Fair CLR 84.2 80.6 89% 98 30.1 0.0
18 07:50 Calm 7.00 Fair CLR 78.8 78.8 100% 83 30.08 0.0
18 06:50 Calm 5.00 Fog/Mist CLR 75.2 75.2 100% 73 30.06 0.0
17 18:50 S 6 7.00 Mostly Cloudy FEW022 BKN050 78.8 69.8 74% 81 30.04 0.0
17 17:50 NW 9 7.00 Thunderstorm FEW022 BKN050 82.4 75.2 79% 89 30.07 0.0
17 16:50 SE 9 10.00 A Few Clouds FEW030 87.8 77 70% 100 30.06 0.0
17 15:50 E 12 10.00 Partly Cloudy SCT040 89.6 78.8 71% 105 30.06 0.0
17 14:50 E 12 10.00 Partly Cloudy SCT040 89.6 78.8 71% 105 30.07 0.0
17 13:50 E 9 G 17 10.00 Partly Cloudy SCT040 89.6 78.8 71% 105 30.09 0.0
17 12:50 SW 5 10.00 Partly Cloudy SCT027 89.6 73.4 59% 98 30.1 0.0
17 11:50 SW 5 10.00 Partly Cloudy SCT027 87.8 77 70% 100 30.09 0.0
17 10:50 SW 2 7.00 Mostly Cloudy BKN020 86 78.8 79% 99 30.11 0.0
17 09:50 S 6 7.00 Fair CLR 84.2 78.8 84% 96 30.11 0.0
17 08:50 E 3 7.00 Fair CLR 77 77 100% 78 30.1 0.0
17 07:50 Calm 7.00 Partly Cloudy SCT100 75.2 75.2 100% 73 30.07 0.0
17 06:50 SW 5 7.00 Fair CLR 73.4 73.4 100% 30.06 0.0
16 18:50 Calm 5.00 Fog/Mist SCT090 BKN100 77 77 100% 78 30.03 0.0
16 17:50 Calm 5.00 Fog/Mist SCT090 BKN100 77 77 100% 78 30.03 0.0
16 16:50 Calm 3.00 Fog/Mist Thunderstorm in Vicinity SCT090 BKN100 77 77 100% 78 30.05 0.0
16 15:50 Calm 3.00 Fog/Mist Thunderstorm in Vicinity SCT090 78.8 77 94% 83 30.06 0.0
16 14:50 N 6 3.00 Fog/Mist Showers in Vicinity SCT030 BKN090 80.6 77 89% 87 30.09 0.0
16 13:50 SE 6 3.00 Fog/Mist Showers in Vicinity SCT095 BKN110 78.8 78.8 100% 83 30.09 0.0
16 12:50 SE 10 1.00 Thunderstorm SCT028 BKN036 84.2 80.6 89% 98 30.09 0.0
16 11:50 E 6 7.00 Showers in Vicinity SCT027 BKN044 89.6 78.8 71% 105 30.08 0.0
16 10:50 Vrbl 5 7.00 Mostly Cloudy BKN020 BKN046 87.8 80.6 79% 105 30.08 0.0
16 09:50 Calm 7.00 Partly Cloudy SCT016 86 80.6 84% 102 30.09 0.0
16 08:50 Calm 7.00 Fair CLR 82.4 80.6 94% 94 30.08 0.0
16 07:50 Calm 7.00 Fair CLR 77 77 100% 78 30.07 0.0
16 06:50 Calm 3.00 Fog/Mist FEW003 73.4 73.4 100% 30.05 0.0
Date Time (edt) Wind (mph) Vis. (mi.) Weather Sky Cond. Air Dwpt Max. Min. Relative Humidity Wind Chill (°F) Heat Index (°F) altimeter (in) sea level (mb) 1 hr 3 hr 6 hr
6 hour
Temperature (ºF) Pressure Precipitation (in)